Wind_Speed
43 40 39 38 38 39 40 39 38 38 37 35 34 33 32 31 30 30 29 28 27 27 27 27 27 26 26 27 27 26 25 24 23 24 24 22 21 21 21 21 21 20 19
41 39 37 36 36 37 36 35 35 34 33 33 32 32 31 31 31 30 29 28 27 27 26 26 26 26 25 25 26 26 25 24 23 23 23 22 21 20 20 20 20 19 19
37 36 35 34 34 34 34 35 34 33 33 33 33 33 32 32 31 31 31 31 30 29 29 28 27 27 26 26 25 25 25 25 23 23 24 23 22 21 21 21 20 20 19
35 34 34 34 34 34 34 34 34 34 34 34 34 35 34 34 34 34 34 33 34 33 32 32 31 30 30 29 28 28 27 26 26 25 25 24 23 23 22 22 22 22 21
34 34 34 34 34 34 34 33 33 33 34 34 35 36 36 36 36 36 36 36 36 36 36 36 35 35 34 33 32 31 31 30 29 28 27 26 25 24 24 24 24 24 22
33 33 34 34 33 33 33 33 33 33 33 34 35 35 36 36 37 37 37 38 38 38 38 38 38 38 38 37 36 36 35 34 33 31 30 29 27 27 26 26 26 25 23
31 32 32 32 32 32 32 32 33 33 33 33 34 34 35 35 36 36 37 38 38 38 38 39 39 39 39 39 39 38 38 36 36 34 33 31 30 29 29 28 27 26 26
29 29 30 30 32 32 32 31 31 32 31 31 31 32 32 33 34 35 35 36 37 37 38 38 39 38 38 38 38 38 38 38 37 36 35 34 33 32 31 30 30 30 29
25 25 26 27 27 27 27 26 26 26 26 27 27 28 30 31 32 33 34 34 35 36 36 36 36 36 36 36 37 38 38 38 38 37 36 36 35 34 34 33 33 33 33
21 21 22 22 22 22 21 20 20 21 22 23 25 27 29 30 31 32 32 32 32 32 32 33 33 34 33 33 33 34 35 36 37 37 37 37 37 36 35 35 35 35 35
17 17 16 16 16 15 15 16 17 19 20 22 24 25 27 28 29 30 30 31 31 31 31 31 30 30 30 30 31 31 32 33 34 35 36 36 37 36 36 37 37 37 38
12 12 12 12 12 12 13 15 16 18 19 21 22 24 25 26 28 29 30 31 32 32 31 31 30 30 29 29 29 29 30 30 30 31 33 34 35 36 36 37 38 39 39
10 10 10 11 11 11 13 14 15 16 18 19 21 23 25 27 29 31 31 32 32 32 32 32 31 31 31 30 30 29 29 29 29 29 29 31 33 35 37 37 38 38 39
9 9 9 9 10 11 12 13 14 15 17 19 22 24 26 28 29 30 31 31 31 31 30 30 30 31 31 31 30 30 29 28 28 27 27 27 28 31 34 36 37 37 39
8 8 9 9 9 10 11 13 14 16 18 20 23 25 26 27 27 27 28 28 28 28 27 28 28 29 29 28 29 29 29 29 29 27 27 26 26 26 28 31 33 36 37
8 9 9 10 10 11 12 13 15 17 19 21 23 25 25 25 24 24 25 25 25 25 25 25 26 27 28 29 29 30 30 30 30 30 29 28 28 27 26 25 26 29 32
10 10 11 11 12 13 14 15 15 17 19 21 22 23 23 22 22 23 24 24 24 24 24 24 24 25 26 28 29 30 30 31 32 32 32 31 30 29 28 26 25 24 25
13 13 13 14 14 15 15 15 16 16 18 20 21 21 21 21 21 22 23 24 24 24 24 24 24 24 25 26 27 29 30 31 33 33 34 34 34 33 31 30 28 26 24
16 16 16 16 16 16 16 16 16 16 17 18 19 19 20 20 21 22 23 24 24 24 24 24 23 24 24 24 25 26 28 30 32 34 35 36 36 36 36 34 33 31 29
19 19 18 18 17 17 17 16 16 16 16 17 17 18 19 20 22 23 24 25 26 26 25 25 24 23 23 23 23 24 25 27 30 32 34 36 37 38 39 39 38 36 35
21 20 20 19 18 18 17 16 16 16 16 16 17 18 19 20 22 24 25 27 28 28 28 27 26 25 24 23 23 22 23 24 26 28 31 34 36 37 39 40 41 41 39
23 22 21 20 19 18 18 18 17 17 17 17 18 19 20 22 23 25 27 28 29 31 31 30 29 27 26 25 24 23 23 23 23 25 26 29 31 34 36 38 41 43 43
24 23 22 21 20 19 19 19 19 19 19 18 19 21 22 23 25 27 29 30 31 33 34 33 32 30 28 27 26 26 24 23 23 23 24 25 27 29 32 34 37 41 43
25 24 23 23 22 21 20 20 20 20 20 20 21 22 23 24 26 28 30 32 33 34 36 36 35 33 31 29 28 27 26 25 24 23 23 24 25 26 28 30 33 36 40
26 25 24 23 22 22 21 21 21 21 21 21 22 23 24 25 27 29 31 33 34 36 37 38 37 35 33 31 30 29 28 26 25 24 24 24 24 25 27 28 31 33 37
26 25 24 24 23 22 22 21 22 22 22 23 23 24 25 26 28 30 32 34 35 37 39 40 38 36 34 32 31 31 29 28 27 26 25 25 25 25 26 27 29 31 33
Wind_Direction
271 272 274 273 272 273 275 278 280 282 284 285 285 285 286 285 285 286 286 288 288 286 283 281 279 277 276 274 271 269 267 263 258 259 261 261 261 262 264 266 267 269 272
269 270 271 271 272 273 274 276 279 281 282 283 284 284 284 284 284 283 284 284 285 286 284 282 281 280 278 276 273 270 267 263 259 258 259 259 259 260 262 265 266 268 270
266 268 269 270 271 272 274 276 278 279 280 281 282 283 283 283 283 282 282 281 281 282 282 280 280 279 277 276 274 271 268 266 264 262 261 260 258 259 261 262 263 268 269
264 266 268 269 271 272 273 275 276 277 278 279 280 281 281 282 282 282 281 280 280 280 279 278 277 277 276 274 273 272 270 268 267 264 263 262 259 258 260 261 263 265 268
263 265 267 269 270 271 272 274 275 275 276 277 278 279 280 281 282 281 281 280 280 279 278 277 276 276 275 273 273 271 270 268 267 265 264 263 260 257 257 257 259 262 265
261 263 266 268 269 270 271 273 273 274 275 276 277 279 280 281 282 282 281 281 281 280 278 277 276 276 274 273 271 270 269 266 265 264 262 261 260 257 255 254 256 259 260
260 262 263 264 267 268 270 271 273 274 275 276 278 279 280 281 282 283 283 282 282 281 279 278 277 275 274 272 270 268 267 265 263 262 260 259 258 256 253 252 252 253 252
259 259 260 261 264 267 269 271 272 274 275 277 279 281 282 283 284 284 284 284 283 282 281 279 278 276 273 271 268 266 265 262 260 259 257 255 254 253 250 248 248 248 249
258 259 259 260 264 268 270 272 274 276 277 279 282 283 285 287 288 288 288 288 287 286 284 283 281 278 275 272 269 266 263 261 258 255 253 251 249 248 246 244 244 245 246
258 260 262 264 267 270 272 275 277 279 282 284 286 289 290 292 293 293 292 291 290 289 287 285 283 281 278 275 271 268 265 261 258 255 252 250 248 246 244 242 241 241 242
256 258 262 266 268 271 274 277 279 283 287 290 293 295 296 297 298 297 295 294 292 291 288 286 284 282 280 277 274 271 268 264 260 256 253 251 249 247 245 242 241 240 240
259 259 262 266 269 272 276 282 286 290 293 295 297 299 300 300 300 299 298 296 294 292 289 286 284 282 280 278 276 274 271 267 264 261 256 252 249 246 245 244 243 241 240
261 262 265 268 273 278 283 287 291 294 296 298 301 303 303 303 302 301 299 297 295 292 290 287 284 282 281 279 276 273 272 269 267 264 261 257 253 249 247 246 244 243 242
259 262 266 271 276 281 285 289 293 297 301 304 307 308 309 308 307 305 303 300 298 295 292 288 286 283 280 276 274 271 269 267 266 264 262 261 257 253 251 249 246 245 244
263 266 270 273 276 281 287 292 298 303 307 310 313 315 315 315 314 312 310 308 305 302 297 292 289 285 279 275 271 268 266 264 263 262 261 259 256 256 256 253 251 248 247
269 271 273 276 280 285 291 296 302 307 312 315 318 320 322 322 321 321 320 317 315 311 306 300 294 288 282 277 273 269 266 263 261 259 258 256 254 255 255 256 254 251 249
274 275 277 280 284 289 294 299 305 311 315 318 322 326 328 329 329 328 327 325 322 318 314 310 304 298 290 283 277 271 267 263 260 257 255 254 253 252 251 252 253 252 251
277 278 280 284 288 292 295 300 306 311 316 321 324 327 330 332 333 332 331 329 326 323 320 317 314 309 301 293 284 277 271 266 261 257 254 252 251 250 249 248 248 249 248
277 278 280 283 287 290 295 300 305 310 315 319 322 325 328 332 334 336 336 335 332 330 327 325 322 318 312 304 295 286 279 272 266 261 256 253 251 249 247 246 245 245 245
274 276 278 280 283 287 291 296 300 305 310 314 318 324 328 332 335 338 340 340 338 335 333 330 326 323 319 313 305 296 288 281 273 268 262 258 254 250 247 245 245 244 243
271 272 275 277 280 284 287 290 293 298 304 309 315 321 326 331 334 337 338 339 339 338 336 335 332 328 323 319 315 307 298 289 281 275 269 264 260 256 252 248 245 244 243
267 269 272 274 278 281 284 288 292 296 301 305 311 317 321 325 329 332 333 335 337 338 337 336 334 331 326 322 318 315 309 301 292 284 278 272 266 261 257 253 249 244 243
263 266 269 272 275 278 282 285 288 293 298 302 306 311 316 320 324 328 330 332 333 334 335 334 332 330 327 323 319 316 313 308 301 293 285 278 272 266 261 257 253 249 246
261 262 265 269 273 276 279 282 284 288 294 299 304 308 312 316 320 325 328 329 330 332 332 331 329 328 325 322 319 316 314 310 305 299 293 286 278 272 267 262 258 254 250
258 259 261 263 266 271 276 280 283 286 290 295 299 303 308 312 317 321 324 326 328 329 328 328 327 325 323 320 317 316 313 310 306 302 297 291 285 279 273 267 263 259 254
255 257 258 260 262 266 270 274 278 281 285 290 295 299 304 309 313 317 320 321 323 325 325 325 324 322 320 318 316 315 314 311 307 303 299 294 289 284 279 274 269 264 259
Height
5792 5793 5794 5795 5796 5796 5796 5796 5796 5795 5794 5792 5791 5790 5789 5788 5786 5785 5784 5782 5780 5779 5777 5776 5775 5775 5774 5774 5773 5773 5773 5773 5774 5774 5775 5776 5777 5776 5776 5776 5776 5776 5775
5782 5783 5784 5785 5786 5786 5786 5786 5786 5785 5785 5784 5783 5782 5781 5780 5779 5778 5776 5775 5774 5772 5771 5770 5769 5768 5767 5767 5766 5766 5766 5767 5767 5768 5768 5769 5770 5770 5770 5769 5769 5769 5769
5771 5773 5773 5774 5775 5776 5777 5777 5777 5777 5776 5775 5775 5774 5773 5772 5771 5770 5769 5768 5766 5765 5764 5763 5762 5761 5760 5760 5760 5759 5759 5759 5760 5761 5761 5762 5763 5763 5763 5763 5763 5763 5763
5762 5763 5764 5765 5766 5767 5767 5768 5767 5767 5767 5767 5766 5765 5764 5763 5762 5761 5760 5759 5758 5757 5756 5755 5754 5753 5752 5752 5752 5752 5752 5752 5752 5753 5754 5755 5756 5756 5756 5756 5756 5757 5757
5752 5753 5754 5755 5756 5757 5758 5758 5758 5758 5758 5758 5757 5756 5755 5754 5753 5752 5751 5750 5749 5747 5746 5745 5744 5743 5743 5743 5743 5743 5744 5744 5744 5745 5746 5747 5747 5748 5749 5749 5750 5750 5750
5743 5744 5745 5746 5747 5748 5748 5748 5749 5749 5749 5748 5748 5747 5746 5745 5744 5742 5741 5740 5738 5737 5736 5734 5733 5733 5732 5732 5732 5733 5734 5734 5735 5736 5737 5738 5739 5740 5741 5742 5742 5743 5743
5733 5735 5735 5736 5737 5738 5739 5739 5739 5739 5739 5739 5738 5737 5736 5735 5734 5732 5731 5729 5727 5726 5724 5723 5722 5721 5720 5720 5720 5721 5722 5723 5724 5725 5727 5728 5729 5731 5732 5733 5734 5735 5736
5724 5726 5727 5727 5728 5729 5730 5730 5730 5730 5730 5730 5729 5728 5727 5725 5724 5722 5721 5719 5717 5715 5713 5711 5710 5709 5708 5708 5708 5708 5709 5711 5712 5714 5715 5717 5718 5720 5722 5724 5726 5727 5728
5717 5718 5719 5719 5720 5721 5721 5721 5722 5722 5722 5721 5721 5719 5718 5716 5714 5712 5710 5708 5706 5704 5702 5700 5698 5697 5696 5696 5696 5696 5697 5698 5699 5701 5703 5704 5706 5709 5711 5713 5715 5717 5719
5710 5711 5712 5712 5713 5714 5714 5715 5715 5715 5715 5714 5713 5711 5709 5707 5705 5703 5701 5699 5696 5694 5692 5690 5688 5686 5685 5684 5684 5684 5684 5685 5686 5688 5690 5692 5694 5696 5699 5702 5704 5707 5709
5705 5706 5706 5707 5708 5708 5709 5709 5709 5709 5708 5707 5705 5704 5701 5699 5696 5694 5692 5689 5687 5685 5682 5680 5678 5677 5675 5674 5673 5673 5673 5673 5674 5675 5677 5679 5682 5684 5687 5689 5693 5695 5698
5701 5702 5702 5703 5703 5704 5704 5704 5704 5703 5702 5701 5699 5697 5694 5691 5689 5686 5683 5680 5678 5675 5673 5671 5669 5667 5666 5665 5664 5663 5663 5663 5664 5664 5666 5668 5670 5672 5675 5677 5680 5683 5686
5698 5699 5699 5700 5700 5700 5700 5699 5699 5698 5697 5695 5693 5690 5687 5684 5681 5678 5674 5671 5668 5665 5663 5661 5659 5658 5656 5655 5654 5654 5653 5654 5654 5655 5655 5657 5658 5660 5663 5665 5668 5671 5674
5695 5696 5696 5696 5696 5695 5695 5695 5694 5693 5691 5689 5686 5683 5680 5677 5673 5669 5666 5662 5659 5656 5653 5651 5649 5648 5646 5645 5644 5644 5644 5644 5644 5645 5646 5647 5648 5649 5651 5653 5656 5659 5662
5692 5692 5692 5692 5692 5691 5691 5690 5689 5687 5685 5683 5680 5677 5673 5670 5666 5662 5658 5654 5651 5647 5644 5642 5640 5638 5636 5635 5634 5634 5634 5634 5635 5636 5637 5638 5639 5639 5640 5642 5644 5646 5649
5689 5689 5688 5688 5688 5687 5686 5685 5684 5682 5680 5677 5674 5671 5667 5663 5659 5655 5651 5647 5644 5640 5637 5634 5631 5628 5627 5625 5624 5623 5623 5624 5624 5625 5627 5628 5629 5630 5631 5633 5634 5636 5638
5686 5685 5685 5684 5683 5683 5682 5680 5679 5677 5674 5672 5668 5665 5661 5658 5654 5650 5646 5642 5638 5634 5630 5626 5623 5620 5617 5615 5614 5613 5613 5613 5614 5614 5616 5617 5619 5621 5622 5624 5625 5627 5629
5682 5681 5680 5679 5678 5678 5677 5675 5674 5672 5669 5666 5663 5660 5657 5653 5650 5646 5641 5637 5632 5628 5624 5620 5616 5613 5609 5607 5604 5603 5602 5602 5602 5603 5604 5606 5608 5610 5612 5615 5617 5619 5620
5677 5676 5675 5674 5673 5672 5671 5670 5668 5667 5664 5662 5659 5656 5653 5649 5646 5642 5637 5633 5628 5623 5619 5614 5610 5606 5602 5599 5596 5594 5592 5591 5591 5592 5593 5594 5596 5598 5601 5604 5606 5609 5611
5671 5670 5670 5669 5668 5667 5666 5665 5663 5662 5660 5657 5655 5651 5648 5645 5641 5637 5633 5628 5623 5618 5614 5610 5605 5601 5597 5593 5589 5586 5584 5582 5581 5580 5581 5582 5584 5586 5589 5592 5595 5598 5600
5664 5663 5663 5663 5662 5661 5660 5659 5658 5657 5655 5653 5650 5647 5644 5640 5637 5633 5629 5624 5619 5614 5609 5604 5600 5596 5591 5587 5583 5580 5577 5574 5572 5571 5570 5571 5572 5574 5576 5579 5582 5585 5588
5656 5656 5656 5656 5655 5655 5654 5653 5652 5651 5649 5647 5645 5642 5639 5636 5632 5628 5624 5619 5614 5609 5604 5599 5594 5590 5586 5581 5577 5574 5570 5567 5565 5563 5561 5561 5561 5562 5564 5566 5569 5572 5576
5648 5649 5649 5649 5648 5648 5647 5647 5645 5644 5643 5641 5639 5636 5633 5630 5627 5623 5619 5614 5609 5604 5599 5594 5589 5584 5580 5575 5571 5567 5564 5561 5558 5555 5553 5552 5551 5551 5552 5553 5555 5558 5561
5640 5641 5641 5641 5641 5641 5641 5640 5639 5638 5637 5635 5633 5630 5627 5624 5621 5617 5613 5608 5603 5598 5593 5588 5583 5578 5573 5569 5564 5561 5558 5554 5551 5548 5546 5544 5543 5542 5542 5542 5543 5545 5547
5631 5632 5633 5634 5634 5634 5633 5633 5632 5631 5630 5628 5626 5624 5621 5618 5615 5611 5607 5602 5597 5592 5587 5582 5577 5572 5567 5562 5558 5554 5550 5547 5544 5541 5539 5537 5535 5534 5533 5532 5532 5533 5534
5622 5624 5625 5626 5626 5626 5626 5626 5625 5624 5623 5622 5619 5617 5614 5611 5608 5604 5600 5595 5590 5585 5581 5575 5570 5565 5560 5555 5551 5547 5543 5539 5536 5533 5531 5529 5527 5525 5524 5522 5522 5521 5522